User: anonymous   Login
Location: Unspecified
(0.0000°N, 0.0000°E)
Time: 12:51:41
(UTC+01:00)
Language:

Cosmos 1953 Rocket - Orbit

View from above orbital plane
View from above orbital plane
View from above satellite
View from above satellite

Ground track
Ground track

The orbit data is extracted from the following two-line orbital elements,

1 19211U 88050B   14304.30096478  .00000472  00000-0  55516-4 0  3896
2 19211 082.5291 019.9608 0022740 043.4134 018.9099 14.82514826424546
Epoch (UTC): 31 October 2014 07:13:23
Eccentricity: 0.0022740
inclination: 82.5291°
perigee height: 605 km
apogee height: 637 km
right ascension of ascending node: 19.9608°
argument of perigee: 43.4134°
revolutions per day: 14.82514826
mean anomaly at epoch: 18.9099°
orbit number at epoch: 42454

The dashed part of the orbit path shows where the satellite is in the earth's shadow,  

DLR